Zurück zum Katalog

DELTA 1 DEB

AktivSSO
NORAD 37666·DEBRIS·🇺🇸 United States

Gestartet Mar 5, 1978 von Vandenberg Space Force Base

Loading…

Nächste Überflüge (nächste 24 Stunden)

TLE

AktuellSource: Space-Track

Epoche: Sep 14, 2026, 07:41 UTC

1 37666U 78026KD  26257.32040931  .00000412  00000-0  21029-3 0  9999
2 37666  98.9177 292.1795 0036833  71.5863 288.9312 14.20859333221218

Verfolge DELTA 1 DEB in Echtzeit mit AllMySat

Download on the App Store